Regional Weather Roundup
Issued by NWS New Orleans/Baton Rouge, LA

Home | Current Version | Previous Version | Text Only | Print | Product List | Glossary Off
Versions: 1 2 3 4 5 6 7 8 9 10 11 12 13 14 15 16 17 18 19 20 21 22 23 24 25 26 27 28 29 30 31 32 33 34 35 36 37 38 39 40 41 42 43 44 45 46 47 48 49 50

842
ASUS44 KLIX 240205
RWRLIX
NEW ORLEANS REGIONAL WEATHER ROUNDUP
NATIONAL WEATHER SERVICE NEW ORLEANS LA
900 PM CDT WED APR 23 2014

NOTE: "FAIR" INDICATES FEW OR NO CLOUDS BELOW 12,000 FEET WITH NO
      SIGNIFICANT WEATHER AND/OR OBSTRUCTIONS TO VISIBILITY.
      SKY/WX - SKY CONDITION AND SIGNIFICANT WEATHER.
      TMP - AIR TEMPERATURE.     DP    - DEWPOINT TEMPERATURE.
      RH  - RELATIVE HUMIDITY.   PRES  - PRESSURE.
      HI  - HEAT INDEX.          WCI   - WIND CHILL INDEX.

*  THESE STATIONS ARE NOT NWS OR FAA STATIONS AND ARE NOT UNDER
   NWS QUALITY CONTROL.

LAZ038-040-048-061>063-065>067-069-240300-
SOUTHEAST LOUISIANA

CITY           SKY/WX    TMP DP  RH WIND       PRES   REMARKS
N.O. AUDUBON     N/A     72  64  76 MISG        N/A
N.O. INTL ARPT PTCLDY    72  65  78 S10       29.92R
N.O. LAKEFRONT CLEAR     74  64  71 SW10      29.92R
N.O. DOWNTOWN*   N/A     75  61  60 S7        29.92S
SLIDELL        CLEAR     66  58  75 CALM      29.91R
BATON ROUGE    MOCLDY    70  59  68 CALM      29.89R
BOOTHVILLE     CLEAR     72  66  81 SW7       29.93R
BELLE CHASSE   PTCLDY    69  63  81 SW3       29.91S
BOGALUSA*        N/A     71  59  64 CALM      29.92R
GALLIANO*      CLEAR     71  64  79 S3        29.92S
NEW ROADS*       N/A     70  57  62 CALM      29.89S
GONZALES*        N/A     73  65  77 S8        29.90R
HAMMOND*       CLEAR     72  57  60 CALM      29.92R
HOUMA*           N/A     70  61  72 CALM      29.92R
PORT FOURCHON* CLEAR     73  66  78 VRB5      29.94S

$$

MSZ070-080>082-240300-
SOUTHERN MISSISSIPPI

CITY           SKY/WX    TMP DP  RH WIND       PRES   REMARKS
MCCOMB         CLEAR     64  53  67 CALM      29.91R
GULFPORT       PTCLDY    73  66  78 CALM      29.91R
BILOXI         CLEAR     70  67  91 S6        29.92R
PASCAGOULA     PTCLDY    67  66  97 CALM      29.92R
STENNIS ARPT*  CLEAR     68  63  83 CALM      29.97R

$$

COASTAL OBSERVATIONS
LAKE AND NEARSHORE STATIONS

STATION/POSITION TIME  TEMP    WIND        PRES    WAVE
                       AIR SEA DIR/SP/G            HT/PER
                 (UTC) (F)     (DEG/KT/KT) (MB)    (FT/S)
PASCAGOULA       0200   72     220/  6/  7 1012.5
WAVELAND YACHT   0200   73 75  200/  6/  8 1012.2
GRAND ISLE       0200   72 71  210/  5/  6 1013.9
SOUTHWEST PASS   0200   68 61  190/  6/  7 1013.9
NEW CANAL        0200   75 73  200/  6/ 10 1013.3
SHELL BEACH      0200   72 71  190/  6/  7 1012.9

OFFSHORE STATIONS

STATION/POSITION TIME  TEMP    WIND        PRES    WAVE
                       AIR SEA DIR/SP/G            HT/PER
                 (UTC) (F)     (DEG/KT/KT) (MB)    (FT/S)
64 S DAUPHIN ISL 0132   70 72  240/  4/  6 1013.7

$$




USA.gov is the U.S. government's official web portal to all federal, state and local government web resources and services.